When you browse on this site, cookies collect data to enhance your experience and personalize the content and advertising you see.
Visit our Privacy Policy to learn more. By continuing to use the site, you agree to this use of cookies and data.

Hourly Weather Tyne Valley

Today, 12 August, Wednesday

Time Temperature Precipitation Wind Pressure Humidity
00:00 +22°C° 0 mm 7 mps 757 mmHg 87%
01:00 +22°C° 0 mm 7 mps 757 mmHg 88%
02:00 +21°C° 0 mm 6 mps 757 mmHg 90%
03:00 +21°C° 0 mm 7 mps 757 mmHg 89%
04:00 +21°C° 0 mm 7 mps 758 mmHg 89%
05:00 +21°C° 0 mm 7 mps 758 mmHg 88%
06:00 +22°C° 0 mm 7 mps 758 mmHg 87%
07:00 +22°C° 0 mm 7 mps 758 mmHg 85%
08:00 +23°C° 0 mm 7 mps 758 mmHg 84%
09:00 +24°C° 0.1 mm 7 mps 758 mmHg 81%
10:00 +26°C° 0.1 mm 7 mps 758 mmHg 78%
11:00 +27°C° 0.1 mm 7 mps 758 mmHg 75%
12:00 +28°C° 0 mm 7 mps 757 mmHg 72%
13:00 +28°C° 0 mm 7 mps 757 mmHg 70%
14:00 +29°C° 0 mm 7 mps 757 mmHg 67%
15:00 +29°C° 0.1 mm 7 mps 757 mmHg 68%
16:00 +29°C° 0.1 mm 7 mps 757 mmHg 68%
17:00 +29°C° 0.1 mm 7 mps 757 mmHg 69%
18:00 +27°C° 1.5 mm 6 mps 757 mmHg 75%
19:00 +26°C° 1.5 mm 6 mps 757 mmHg 82%
20:00 +23°C° 1.5 mm 6 mps 758 mmHg 88%
21:00 +23°C° 0.8 mm 5 mps 758 mmHg 90%
22:00 +22°C° 0.8 mm 5 mps 758 mmHg 93%
23:00 +22°C° 0.8 mm 5 mps 758 mmHg 95%

Tomorrow, 13 August, Thursday

Time Temperature Precipitation Wind Pressure Humidity
00:00 +22°C° 0 mm 5 mps 758 mmHg 94%
01:00 +21°C° 0 mm 4 mps 758 mmHg 93%
02:00 +21°C° 0 mm 4 mps 758 mmHg 92%
03:00 +20°C° 0 mm 4 mps 758 mmHg 90%
04:00 +20°C° 0 mm 4 mps 758 mmHg 88%
05:00 +19°C° 0 mm 3 mps 759 mmHg 86%
06:00 +20°C° 0 mm 4 mps 759 mmHg 83%
07:00 +21°C° 0 mm 4 mps 759 mmHg 80%
08:00 +22°C° 0 mm 4 mps 759 mmHg 77%
09:00 +23°C° 0 mm 4 mps 759 mmHg 71%
10:00 +25°C° 0 mm 3 mps 759 mmHg 65%
11:00 +26°C° 0 mm 3 mps 759 mmHg 60%
12:00 +27°C° 0 mm 2 mps 759 mmHg 57%
13:00 +28°C° 0 mm 2 mps 759 mmHg 54%
14:00 +28°C° 0 mm 2 mps 759 mmHg 50%
15:00 +28°C° 0 mm 1 mps 759 mmHg 53%
16:00 +27°C° 0 mm 1 mps 759 mmHg 55%
17:00 +27°C° 0 mm 1 mps 759 mmHg 58%
18:00 +26°C° 0 mm 1 mps 759 mmHg 60%
19:00 +25°C° 0 mm 1 mps 760 mmHg 63%
20:00 +24°C° 0 mm 1 mps 760 mmHg 65%
21:00 +24°C° 0 mm 2 mps 760 mmHg 64%
22:00 +24°C° 0 mm 3 mps 760 mmHg 62%
23:00 +22°C° 0 mm 3 mps 760 mmHg 61%

Day after tomorrow, 14 August, Friday

Time Temperature Precipitation Wind Pressure Humidity
00:00 +21°C° 0 mm 3 mps 760 mmHg 65%
01:00 +21°C° 0 mm 3 mps 760 mmHg 69%
02:00 +20°C° 0 mm 3 mps 760 mmHg 73%
03:00 +19°C° 0 mm 4 mps 760 mmHg 75%
04:00 +19°C° 0 mm 4 mps 760 mmHg 78%
05:00 +18°C° 0 mm 4 mps 760 mmHg 80%
06:00 +19°C° 0 mm 4 mps 761 mmHg 79%
07:00 +20°C° 0 mm 4 mps 761 mmHg 78%
08:00 +21°C° 0 mm 4 mps 761 mmHg 77%
09:00 +22°C° 0 mm 5 mps 761 mmHg 76%
10:00 +22°C° 0 mm 6 mps 761 mmHg 74%
11:00 +23°C° 0 mm 7 mps 762 mmHg 73%
12:00 +22°C° 0 mm 7 mps 762 mmHg 73%
13:00 +22°C° 0 mm 7 mps 762 mmHg 73%
14:00 +21°C° 0 mm 7 mps 762 mmHg 74%
15:00 +21°C° 0 mm 6 mps 762 mmHg 74%
16:00 +21°C° 0 mm 6 mps 762 mmHg 75%
17:00 +21°C° 0 mm 6 mps 763 mmHg 76%
18:00 +20°C° 0 mm 6 mps 763 mmHg 79%
19:00 +19°C° 0 mm 6 mps 763 mmHg 82%
20:00 +19°C° 0 mm 6 mps 764 mmHg 85%
21:00 +17°C° 0 mm 5 mps 764 mmHg 85%
22:00 +16°C° 0 mm 5 mps 764 mmHg 85%
23:00 +16°C° 0 mm 5 mps 764 mmHg 85%

15 August, Saturday

Time Temperature Precipitation Wind Pressure Humidity
00:00 +16°C° 0 mm 5 mps 764 mmHg 83%
01:00 +16°C° 0 mm 5 mps 764 mmHg 81%
02:00 +16°C° 0 mm 6 mps 764 mmHg 79%
03:00 +16°C° 0 mm 6 mps 764 mmHg 79%
04:00 +16°C° 0 mm 6 mps 764 mmHg 80%
05:00 +15°C° 0 mm 6 mps 764 mmHg 80%
06:00 +17°C° 0 mm 7 mps 764 mmHg 75%
07:00 +18°C° 0 mm 7 mps 764 mmHg 70%
08:00 +20°C° 0 mm 8 mps 765 mmHg 65%
09:00 +20°C° 0 mm 8 mps 764 mmHg 67%
10:00 +21°C° 0 mm 8 mps 764 mmHg 68%
11:00 +21°C° 0 mm 8 mps 764 mmHg 70%
12:00 +21°C° 0 mm 8 mps 764 mmHg 71%
13:00 +22°C° 0 mm 8 mps 764 mmHg 72%
14:00 +22°C° 0 mm 8 mps 764 mmHg 73%
15:00 +21°C° 0 mm 7 mps 764 mmHg 74%
16:00 +21°C° 0 mm 7 mps 764 mmHg 76%
17:00 +21°C° 0 mm 6 mps 764 mmHg 77%
18:00 +20°C° 0 mm 6 mps 764 mmHg 79%
19:00 +20°C° 0 mm 5 mps 764 mmHg 81%
20:00 +19°C° 0 mm 5 mps 765 mmHg 83%
21:00 +19°C° 0 mm 5 mps 765 mmHg 85%
22:00 +19°C° 0 mm 5 mps 765 mmHg 87%
23:00 +19°C° 0 mm 5 mps 765 mmHg 89%

16 August, Sunday

Time Temperature Precipitation Wind Pressure Humidity
00:00 +19°C° 0.1 mm 5 mps 765 mmHg 90%
01:00 +18°C° 0.1 mm 4 mps 765 mmHg 92%
02:00 +18°C° 0.1 mm 3 mps 765 mmHg 94%
03:00 +18°C° 0.1 mm 3 mps 765 mmHg 94%
04:00 +18°C° 0.1 mm 3 mps 765 mmHg 93%
05:00 +17°C° 0.1 mm 3 mps 765 mmHg 93%
06:00 +18°C° 0 mm 3 mps 765 mmHg 89%
07:00 +19°C° 0 mm 3 mps 765 mmHg 85%
08:00 +20°C° 0 mm 3 mps 765 mmHg 81%
09:00 +21°C° 0 mm 3 mps 765 mmHg 77%
10:00 +21°C° 0 mm 3 mps 765 mmHg 73%
11:00 +22°C° 0 mm 3 mps 765 mmHg 69%
12:00 +22°C° 0 mm 3 mps 764 mmHg 68%
13:00 +24°C° 0 mm 3 mps 764 mmHg 67%
14:00 +24°C° 0 mm 3 mps 764 mmHg 65%
15:00 +24°C° 0 mm 3 mps 763 mmHg 66%
16:00 +24°C° 0 mm 3 mps 763 mmHg 67%
17:00 +23°C° 0 mm 4 mps 763 mmHg 68%
18:00 +21°C° 0 mm 4 mps 763 mmHg 73%
19:00 +20°C° 0 mm 4 mps 763 mmHg 78%
20:00 +19°C° 0 mm 4 mps 763 mmHg 83%
21:00 +18°C° 0 mm 4 mps 763 mmHg 84%
22:00 +17°C° 0 mm 5 mps 763 mmHg 85%
23:00 +16°C° 0 mm 6 mps 763 mmHg 86%

17 August, Monday

Time Temperature Precipitation Wind Pressure Humidity
00:00 +16°C° 0 mm 5 mps 763 mmHg 86%
01:00 +16°C° 0 mm 5 mps 763 mmHg 86%
02:00 +16°C° 0 mm 5 mps 763 mmHg 86%
03:00 +15°C° 0 mm 5 mps 762 mmHg 87%
04:00 +15°C° 0 mm 4 mps 762 mmHg 88%
05:00 +14°C° 0 mm 3 mps 762 mmHg 89%
06:00 +15°C° 0 mm 4 mps 762 mmHg 86%
07:00 +17°C° 0 mm 4 mps 762 mmHg 83%
08:00 +18°C° 0 mm 4 mps 762 mmHg 79%
09:00 +19°C° 0 mm 5 mps 762 mmHg 75%
10:00 +19°C° 0 mm 5 mps 761 mmHg 71%
11:00 +20°C° 0 mm 5 mps 761 mmHg 67%
12:00 +21°C° 0 mm 5 mps 761 mmHg 65%
13:00 +21°C° 0 mm 5 mps 760 mmHg 63%
14:00 +22°C° 0 mm 4 mps 760 mmHg 61%
15:00 +22°C° 0 mm 4 mps 760 mmHg 62%
16:00 +22°C° 0 mm 4 mps 760 mmHg 63%
17:00 +22°C° 0 mm 3 mps 760 mmHg 64%
18:00 +21°C° 0 mm 4 mps 760 mmHg 68%
19:00 +20°C° 0 mm 5 mps 760 mmHg 73%
20:00 +19°C° 0 mm 5 mps 760 mmHg 77%
21:00 +19°C° 0 mm 5 mps 760 mmHg 79%
22:00 +19°C° 0 mm 6 mps 760 mmHg 80%
23:00 +17°C° 0 mm 6 mps 760 mmHg 81%
Show more